Theta_e
325 319 311 306 298 293 288 294 297 299 304 307 319 319 319 322 320 313 335 338 348 356 362 364 366 366 364 362 361 360 360 360 360 360 360 359 360 360 360 360 360 361 360 360 358 357 355 353 352
324 320 307 298 290 287 288 294 298 300 307 309 309 308 309 318 329 335 333 340 347 359 361 363 366 365 364 362 361 360 359 359 359 359 359 359 360 360 360 361 362 362 360 360 358 357 355 352 351
320 319 301 294 287 286 288 296 299 302 305 306 305 308 311 328 337 336 345 347 355 358 360 361 365 364 363 362 361 360 358 358 359 360 359 359 360 360 360 361 361 361 360 358 357 356 353 351 349
310 309 305 294 287 290 292 294 297 299 301 304 304 303 309 338 337 348 350 353 355 357 359 363 364 363 362 362 361 359 359 358 359 361 359 359 359 360 360 361 360 360 358 357 356 352 350 349 348
307 301 294 289 291 293 296 296 297 297 298 300 304 301 310 341 351 350 352 354 353 356 358 362 364 363 362 362 361 360 359 358 359 360 360 359 359 359 359 360 360 359 356 354 351 350 351 350 349
300 296 288 286 291 295 298 298 297 297 299 301 301 300 322 347 348 350 351 350 354 355 359 360 363 362 361 361 360 359 358 358 358 359 359 359 359 359 359 359 359 358 356 353 351 351 351 351 350
297 292 286 287 290 293 298 300 298 298 298 300 303 299 310 343 349 350 347 347 351 356 357 359 359 361 362 361 360 358 358 357 357 357 358 358 359 359 358 358 358 357 357 355 353 352 350 349 349
296 294 287 290 291 291 300 300 299 298 298 305 307 300 301 312 349 346 348 348 350 354 356 356 357 356 356 356 360 358 358 357 357 358 358 358 358 359 358 356 356 357 355 354 353 351 351 350 350
296 288 283 287 290 293 298 295 300 302 300 301 304 303 308 338 350 345 346 347 348 351 353 354 354 353 354 354 357 358 358 357 357 357 357 355 353 353 354 354 356 356 355 355 354 353 352 351 351
290 284 286 293 294 293 295 294 298 298 298 298 300 304 310 323 331 335 337 341 344 346 350 351 352 351 352 352 353 353 352 352 352 352 352 352 349 347 352 352 356 356 355 355 354 354 353 350 341
287 286 290 293 294 295 295 295 298 295 294 297 298 301 305 316 327 329 326 321 341 346 348 350 350 350 350 350 351 351 351 350 350 350 350 347 347 347 347 345 349 347 353 346 347 345 344 342 339
287 293 293 294 296 295 293 295 294 295 296 300 301 302 304 307 318 320 321 322 320 342 347 349 349 349 350 349 348 348 347 348 348 349 346 342 341 340 343 340 343 343 343 342 340 338 338 337 337
289 292 295 297 296 293 295 294 295 294 299 301 302 303 302 302 313 317 320 321 323 336 346 348 349 348 350 347 347 347 346 346 345 346 343 340 338 336 339 341 341 341 340 338 336 335 335 335 336
293 294 295 295 294 293 293 295 294 297 300 299 300 299 300 302 303 314 317 319 321 326 346 347 348 349 349 347 345 345 344 343 342 343 341 338 336 334 336 339 340 339 339 337 336 335 334 337 337
296 292 293 293 293 293 294 291 292 298 298 297 298 298 299 300 303 306 309 316 321 326 342 343 342 345 345 341 340 338 338 339 336 338 336 336 336 336 335 336 337 337 338 336 339 340 338 334 335
291 289 283 290 293 296 291 286 295 299 296 297 299 299 300 299 299 302 306 310 326 333 341 339 344 339 335 336 335 336 335 335 335 337 335 335 336 338 335 334 333 336 337 342 338 334 331 330 330
287 283 284 288 294 295 290 290 297 301 297 296 295 296 298 298 301 301 305 310 340 338 341 339 341 337 336 337 336 335 335 336 337 338 336 335 338 341 337 335 341 342 338 335 334 331 329 326 326
284 283 286 288 293 296 293 293 297 300 296 296 296 296 298 298 299 301 303 315 341 341 341 341 340 338 338 339 340 338 337 337 340 340 339 338 341 339 343 341 339 338 335 333 331 329 328 327 326
290 288 287 291 296 293 293 293 295 297 294 294 296 296 296 299 300 300 303 321 339 340 340 340 338 338 339 339 339 338 336 338 342 343 342 340 341 346 342 340 338 336 334 332 332 329 326 327 327
289 287 287 292 296 293 292 292 295 296 295 297 297 297 296 298 299 301 302 316 337 338 341 336 335 331 339 340 342 342 340 341 342 342 341 340 345 346 342 338 335 331 329 328 327 326 325 322 321
289 287 288 289 293 295 291 289 291 295 295 296 298 298 297 298 300 300 300 313 336 335 336 340 339 339 340 340 344 342 343 343 341 340 341 343 346 345 340 336 333 329 328 327 326 326 324 320 319
287 292 292 291 289 283 290 281 290 292 293 295 298 299 299 298 300 300 299 299 333 338 337 340 333 333 338 342 341 341 339 338 340 341 340 341 343 338 336 332 330 329 328 324 321 320 318 315 311
290 295 292 291 288 286 286 282 284 290 290 293 295 297 299 299 299 302 300 300 311 338 339 338 335 332 338 343 343 342 340 340 341 339 336 335 334 334 333 331 330 327 323 320 316 314 313 312 310
297 293 290 287 284 281 286 284 285 287 290 292 294 296 299 300 299 300 302 302 302 323 339 336 335 337 339 344 339 336 339 339 337 336 334 333 333 332 332 330 327 323 319 317 315 314 313 310 309
293 288 281 278 278 278 287 284 286 291 293 293 293 295 297 299 297 298 299 300 301 312 337 338 334 338 336 339 333 341 339 337 336 336 333 332 331 329 327 327 324 320 316 315 314 313 311 309 308
288 288 281 276 276 276 286 279 284 294 297 297 297 298 298 298 298 298 297 300 301 315 335 339 338 336 330 330 329 337 340 336 335 337 335 333 331 328 326 322 319 317 316 315 313 312 310 308 307
288 285 291 285 284 280 281 286 292 295 295 296 297 298 298 300 301 299 297 298 301 314 333 338 340 338 328 328 331 338 338 336 335 336 335 333 329 325 321 319 317 317 316 313 311 311 309 308 305
290 293 284 286 278 275 279 281 284 290 291 295 295 296 299 301 303 301 298 298 302 307 328 339 339 341 332 330 337 337 339 338 337 336 332 328 325 321 318 316 316 316 315 313 312 309 307 306 304
287 287 289 288 285 278 276 279 289 292 292 294 295 297 298 300 302 303 302 305 306 307 313 337 340 341 339 337 337 336 339 337 335 330 326 323 319 317 316 316 315 313 311 310 309 308 307 305 302
291 288 288 282 278 284 283 281 294 294 298 296 297 300 301 302 304 305 302 306 310 312 325 337 340 340 339 340 336 338 337 332 326 324 321 319 316 317 316 315 313 312 311 310 309 308 307 303 300
Wind_Speed
7 6 1 4 4 5 4 7 3 5 3 2 6 6 9 8 9 8 3 14 12 14 16 18 18 19 19 19 19 19 20 19 18 17 17 17 16 17 17 16 15 14 14 13 11 10 9 9 8
4 2 5 3 6 1 6 5 9 7 3 11 9 8 8 8 4 8 2 14 19 17 16 17 20 20 20 20 20 20 20 20 19 18 17 17 16 16 16 15 14 14 15 13 11 10 9 8 8
3 1 4 5 5 7 6 5 7 5 4 5 5 9 7 5 1 5 4 16 17 17 17 17 22 21 21 21 20 19 19 19 18 17 17 16 16 14 14 14 13 13 13 12 11 9 8 7 7
2 4 5 4 7 7 7 2 5 9 9 8 3 10 10 4 7 4 11 19 17 16 17 21 23 23 22 22 21 21 20 20 18 17 17 16 15 14 13 13 12 12 13 12 10 8 7 6 4
4 3 1 2 5 6 8 3 4 7 3 9 8 6 8 3 7 14 15 19 22 16 15 17 22 22 23 22 22 21 21 21 20 18 17 16 15 14 12 12 11 12 12 11 10 7 6 5 4
4 3 2 4 5 4 7 4 2 1 5 8 11 6 6 4 12 11 8 14 17 18 18 18 23 22 22 22 22 21 21 20 19 19 17 16 14 13 13 12 12 11 10 9 9 7 5 4 3
6 4 4 3 2 1 5 2 4 5 5 6 9 5 9 9 3 14 9 4 10 14 14 15 17 18 22 21 21 20 20 19 18 18 16 15 14 13 12 11 10 9 8 7 7 6 5 4 4
5 4 2 2 1 4 5 8 4 3 4 8 6 5 10 18 4 7 12 7 5 8 12 14 15 15 16 15 21 21 20 20 19 18 17 15 14 12 11 10 9 8 8 7 6 5 4 4 5
3 3 1 3 4 5 10 6 3 3 6 4 3 1 7 18 10 4 12 7 5 7 10 13 16 13 15 14 14 18 21 20 18 16 16 12 6 6 8 7 8 8 8 7 6 5 5 5 7
5 4 6 7 5 7 8 6 16 5 9 3 4 6 7 10 12 9 10 6 13 13 14 13 16 15 15 11 14 9 10 8 8 8 9 6 5 5 6 7 9 8 7 7 6 5 6 6 3
2 4 5 6 6 5 6 8 6 4 7 4 7 8 8 5 5 5 9 10 15 7 11 15 13 14 16 13 9 6 5 5 5 7 8 6 5 4 3 2 2 2 5 2 3 3 3 4 3
3 4 3 8 6 7 7 6 8 6 8 5 7 6 4 5 5 4 5 11 12 15 13 16 13 14 14 10 9 9 8 8 6 7 6 4 3 3 3 2 3 2 0 3 3 2 3 4 4
2 3 6 7 10 7 8 7 10 6 9 6 7 6 4 5 3 5 6 1 10 16 12 13 17 15 11 12 10 10 7 7 7 6 5 4 4 4 3 2 2 2 2 2 2 3 3 3 4
4 6 8 6 9 6 4 9 4 7 7 6 7 8 7 6 5 7 3 2 10 12 9 9 10 13 11 9 9 7 6 6 6 6 6 5 4 4 4 3 4 4 3 1 2 3 3 1 4
5 8 9 6 5 7 4 8 7 12 4 8 7 10 10 6 6 9 8 8 10 7 5 7 7 6 11 10 7 5 5 4 4 4 5 6 5 4 4 3 2 2 3 3 2 4 3 3 4
5 4 4 7 7 7 2 8 16 14 8 13 11 9 13 8 5 7 9 8 15 8 4 6 8 7 7 7 4 4 5 4 3 4 4 6 6 5 4 2 1 2 3 4 4 4 4 4 3
4 5 6 6 1 5 1 12 13 17 13 12 7 8 9 8 8 5 9 9 8 12 16 12 12 12 9 7 6 6 6 4 4 4 5 7 6 5 5 4 3 4 4 4 3 3 2 2 2
10 5 6 8 7 10 10 15 16 14 9 14 9 8 9 9 9 2 8 7 10 18 20 21 15 14 13 8 5 5 5 4 4 4 4 6 4 6 6 5 4 4 5 4 3 3 3 2 1
12 11 12 12 11 6 13 17 18 12 9 11 12 8 9 11 6 4 8 9 9 12 17 17 18 15 10 7 9 7 7 5 4 4 6 6 6 7 8 5 5 4 4 4 3 2 4 4 3
11 13 14 9 9 6 14 18 18 13 11 15 15 11 8 10 8 1 6 7 9 15 15 13 15 10 10 8 3 3 7 5 3 4 4 6 7 6 7 6 5 5 5 5 3 3 2 3 5
7 7 10 13 17 12 11 16 12 8 7 8 11 11 6 10 12 4 5 8 7 12 16 16 13 12 11 11 7 5 2 6 4 5 4 4 8 6 7 6 7 5 4 4 3 4 4 3 4
15 10 12 11 8 12 4 22 15 9 14 13 19 19 17 10 8 5 5 6 9 12 15 17 12 13 9 9 7 11 6 6 3 7 6 6 9 7 7 6 6 6 4 6 5 4 4 3 3
13 13 14 12 11 14 3 9 2 4 12 14 14 18 17 13 10 10 9 10 10 10 12 15 14 10 8 9 8 8 8 6 5 8 12 7 7 8 8 7 8 7 6 6 7 6 7 4 4
7 6 4 1 2 14 11 12 10 8 14 9 7 12 16 15 7 8 7 7 9 8 12 12 13 12 9 11 11 12 10 9 10 9 8 6 4 6 7 8 7 7 6 8 7 7 8 6 6
7 5 4 4 1 9 7 12 19 7 7 8 9 10 13 13 6 8 7 7 8 10 11 13 16 14 12 12 11 15 15 14 13 11 8 7 4 6 6 8 6 7 7 8 7 7 6 5 6
7 7 4 7 4 5 5 7 8 15 17 10 8 10 9 9 7 9 10 8 9 11 12 15 18 16 13 13 12 12 17 12 12 12 6 6 6 7 7 9 8 7 10 8 6 5 6 7 7
2 5 5 5 6 8 6 7 7 10 10 4 3 3 7 10 10 9 10 9 9 10 13 15 16 17 14 15 12 12 11 14 13 16 12 8 10 10 10 9 9 8 9 8 6 6 7 8 6
9 6 3 4 5 6 5 5 7 4 1 3 4 6 8 9 12 10 8 9 8 9 13 16 15 19 19 17 14 14 15 14 13 12 10 8 8 14 11 11 10 10 8 7 7 7 6 8 4
1 2 2 4 4 4 5 5 6 6 4 5 7 8 8 8 10 11 7 4 6 10 10 16 16 18 19 19 16 17 14 15 15 14 15 13 13 10 13 11 11 9 8 5 7 7 7 7 6
9 11 5 4 4 4 3 11 9 4 5 5 8 10 10 9 10 8 7 7 4 7 12 16 17 18 20 20 21 20 17 14 14 14 15 15 15 9 11 13 11 9 7 6 6 6 6 7 6
Wind_Direction
334 320 20 38 62 59 250 248 244 265 354 318 133 137 203 189 183 214 285 177 117 127 142 148 159 148 142 135 132 131 127 130 130 131 130 132 134 133 133 132 134 135 137 137 134 129 125 124 129
334 342 41 78 101 147 262 246 235 222 325 337 343 324 317 265 218 277 128 181 151 142 149 153 158 151 146 141 140 138 134 136 137 138 136 138 138 137 136 136 140 143 145 143 141 139 137 141 142
311 47 89 127 144 191 230 224 256 32 23 320 310 286 276 246 289 244 270 154 144 144 149 158 156 153 150 144 141 140 138 141 142 141 141 141 139 139 140 141 143 144 144 144 147 150 150 153 151
43 18 31 108 211 261 229 271 353 353 347 355 332 302 307 275 163 172 139 145 141 152 149 158 156 155 152 148 147 148 147 147 147 144 145 145 145 146 146 145 146 150 153 154 156 160 164 163 167
37 57 97 227 238 265 278 264 2 320 253 264 309 267 269 80 106 132 153 149 152 152 148 157 155 158 154 153 154 154 151 152 153 151 151 152 152 151 151 151 155 158 158 160 160 168 177 181 195
48 85 91 238 233 268 285 271 318 284 298 292 345 283 265 41 115 132 159 161 154 153 153 157 161 160 157 157 156 158 156 157 156 156 156 157 158 159 157 159 159 164 162 169 164 176 192 213 233
117 95 221 224 239 291 250 351 309 354 344 359 303 329 295 348 24 134 137 146 156 151 152 154 160 162 162 160 158 160 159 158 159 157 158 163 163 167 162 164 163 169 168 172 178 188 211 241 273
109 102 299 264 81 274 275 335 303 340 306 340 352 10 311 310 198 135 122 133 145 152 153 156 164 163 164 164 162 162 161 162 162 160 162 169 170 170 170 169 170 177 179 191 194 213 241 270 290
110 43 302 279 10 284 304 327 114 291 263 334 2 342 285 356 122 165 122 128 156 176 162 160 168 162 166 165 171 166 163 164 162 162 168 167 168 171 181 174 180 193 193 208 221 237 259 277 289
108 129 231 203 218 254 274 273 295 294 309 227 298 316 353 53 22 18 356 203 177 189 179 167 170 167 162 161 170 163 163 165 160 161 168 170 170 166 172 191 196 202 214 229 246 256 266 284 300
129 197 239 272 271 269 275 296 264 295 296 263 290 310 331 43 76 5 347 12 306 236 184 177 169 165 164 164 158 160 157 164 159 163 168 175 163 182 160 177 209 200 236 270 292 305 299 300 321
288 268 326 307 328 323 296 299 306 217 257 272 284 282 295 340 122 205 14 356 328 276 226 180 173 170 167 160 163 164 164 170 173 179 163 160 154 185 161 194 207 213 288 278 297 293 298 325 312
188 317 315 280 288 277 281 266 267 223 266 271 297 319 290 289 125 112 118 90 338 301 238 224 173 175 172 158 165 168 170 173 165 159 163 159 159 179 157 188 214 205 201 230 289 301 337 306 337
281 277 294 282 288 250 261 284 322 273 226 260 269 283 266 239 180 155 110 42 259 306 247 226 218 162 162 160 166 168 166 165 163 169 166 167 160 162 181 194 222 212 201 200 210 254 317 313 128
284 307 322 327 300 299 332 314 274 279 276 281 258 282 283 243 193 181 193 175 222 195 239 193 231 171 160 154 158 156 142 134 147 150 157 160 171 171 189 210 241 289 222 196 108 96 93 69 71
341 22 352 288 325 278 350 286 299 299 321 297 293 273 282 282 238 185 205 213 197 163 118 202 190 183 146 142 146 147 139 135 156 147 154 172 166 180 184 151 132 197 127 116 114 109 77 61 32
343 250 276 307 238 280 66 291 283 297 287 282 271 280 287 289 294 184 220 230 168 163 176 184 192 171 149 144 144 142 131 149 168 150 161 189 172 169 123 130 126 130 95 97 112 68 115 69 14
272 245 245 274 281 296 301 278 278 290 277 273 267 252 270 280 271 220 217 223 167 176 185 188 192 184 163 142 138 133 135 151 153 174 168 170 148 126 127 126 125 118 111 101 95 122 75 83 3
274 269 258 270 271 293 283 268 279 289 296 280 275 242 256 274 266 129 206 211 152 166 171 185 189 182 167 167 165 158 160 152 163 167 159 142 128 135 124 120 111 89 88 107 117 97 78 31 15
255 263 272 277 270 261 276 274 278 273 263 268 274 270 246 273 287 325 182 208 173 173 176 181 197 182 175 177 176 127 161 136 146 112 126 125 128 126 122 122 106 96 101 87 80 91 105 63 11
283 238 259 265 283 275 276 274 265 286 238 272 274 262 236 239 272 277 183 200 197 175 182 187 190 184 185 173 141 105 80 84 93 94 98 113 115 110 116 104 103 111 99 103 84 74 80 105 40
275 255 263 265 262 272 139 291 270 262 260 242 259 266 269 238 241 217 207 204 201 203 193 188 179 187 176 168 157 157 155 128 154 126 113 100 100 100 91 101 101 96 99 79 67 56 71 95 49
279 272 253 255 263 280 202 272 184 196 263 253 246 257 258 247 215 235 199 192 218 208 204 188 181 186 175 165 157 139 131 109 105 98 95 93 101 118 115 115 113 106 91 81 78 65 66 59 77
331 333 300 93 161 258 239 225 259 246 248 271 233 251 265 273 235 246 209 203 198 224 188 198 181 190 176 168 148 127 138 125 115 116 117 136 129 106 96 87 91 89 96 91 79 71 69 72 71
31 37 326 309 234 261 208 228 244 260 239 225 249 263 257 262 266 248 219 206 180 200 192 188 195 190 178 169 140 130 123 118 116 115 124 145 139 115 112 99 106 98 96 86 84 76 69 67 74
282 168 192 281 253 272 333 254 255 231 252 263 260 273 283 287 289 265 241 202 182 188 203 185 193 197 172 166 144 138 142 141 137 131 150 154 154 135 121 99 89 91 86 85 87 89 82 71 68
205 196 185 251 242 268 222 271 295 261 260 234 274 289 297 291 288 274 240 212 183 185 194 190 192 190 174 176 145 144 147 166 168 146 153 154 163 108 106 107 107 96 88 90 86 92 83 78 70
193 183 211 202 249 250 276 249 243 256 249 3 323 319 305 300 304 294 248 221 199 190 188 192 176 183 179 172 157 152 156 152 151 135 134 150 144 115 108 107 103 92 85 85 102 87 80 83 71
9 252 227 243 234 255 289 251 233 245 199 249 276 277 274 272 288 305 245 178 199 188 184 182 169 175 172 164 156 155 156 142 142 133 134 138 106 111 116 108 100 96 91 91 93 88 94 92 76
268 252 234 243 229 232 282 262 274 208 277 313 302 291 292 269 275 280 253 272 83 199 172 171 170 166 170 157 153 157 147 133 129 125 117 112 106 112 116 105 98 99 107 99 88 93 93 86 72